Wind_Speed
38 41 36 31 24 31 37 43 42 38 33 42 49 58 58 60 64 70 74 78 79 77 79 81 83 85 88 90 91 91 94 88 89 89 86 95 97 101 106 109 109 107 105
37 35 39 40 35 38 30 51 37 46 50 57 63 68 72 72 78 74 72 73 74 76 79 81 84 85 87 90 91 86 88 86 88 85 89 94 102 107 108 108 109 106 105
40 46 42 47 43 42 42 50 47 49 52 63 69 73 78 78 76 74 76 76 77 80 82 83 86 83 80 82 85 84 84 85 84 86 89 96 100 102 105 109 107 106 108
41 46 46 51 50 49 49 55 60 67 67 71 74 78 77 75 73 74 77 79 78 75 74 76 79 80 80 80 82 86 85 84 88 92 94 99 99 103 108 108 103 106 110
44 46 48 51 52 50 53 59 66 70 71 74 74 71 69 70 70 70 71 72 73 75 76 77 77 77 80 84 81 78 81 87 89 92 100 101 102 102 104 103 108 111 112
32 31 35 34 36 34 46 54 61 65 67 69 69 70 70 70 71 72 73 74 75 76 76 76 78 82 81 80 77 79 85 87 91 98 101 103 101 105 104 106 109 113 112
23 27 30 35 43 53 58 53 46 49 46 44 44 40 42 46 50 55 63 69 73 76 78 80 75 72 75 80 82 86 90 91 96 104 103 107 106 108 108 110 114 115 111
25 29 32 34 37 39 40 41 39 37 40 41 42 42 47 50 54 55 57 63 69 71 73 75 79 82 80 85 84 83 86 94 103 110 113 112 113 114 117 117 117 112 108
35 31 33 37 40 40 38 40 39 41 41 43 47 50 54 57 57 59 62 65 65 66 71 77 84 85 87 82 79 80 89 97 107 113 115 115 118 121 122 118 113 107 103
44 43 42 44 44 45 47 49 50 51 52 53 55 59 63 63 65 65 66 70 72 74 72 72 78 80 77 83 83 87 92 98 107 113 115 120 123 124 126 119 112 104 100
47 47 49 51 51 54 54 55 57 58 61 61 64 67 70 71 70 70 72 74 78 80 80 81 82 83 81 83 88 94 98 104 113 116 119 123 125 126 119 114 107 101 97
52 53 56 58 59 59 60 62 64 66 67 66 71 71 76 74 75 74 77 79 84 85 87 88 88 87 87 90 94 100 106 112 118 120 122 125 126 121 113 107 102 98 93
59 61 65 68 67 63 65 67 69 70 71 72 73 78 80 79 81 80 82 86 87 89 91 93 92 92 92 97 102 107 113 118 121 125 125 126 121 116 109 102 98 94 88
66 68 72 74 74 74 72 73 75 76 76 77 81 84 83 85 85 88 91 91 91 94 95 94 96 95 95 101 107 113 118 122 126 126 126 121 116 111 106 98 96 90 82
73 73 77 78 78 80 78 77 79 78 79 84 88 88 87 91 92 96 96 95 99 101 103 101 98 100 102 106 113 116 121 128 129 129 125 119 112 106 100 95 88 84 78
77 77 79 80 82 83 83 82 82 83 88 92 92 89 93 95 96 100 100 102 104 106 106 102 101 103 106 113 117 120 127 132 131 129 120 113 106 100 97 90 83 79 71
81 81 84 84 86 86 84 86 84 88 93 93 92 96 98 100 104 104 105 108 110 109 105 102 104 109 114 116 121 126 130 130 127 121 113 106 99 96 91 83 77 74 66
85 86 87 86 88 87 85 85 90 94 95 93 98 101 105 109 112 114 113 113 112 110 104 107 110 114 115 119 126 129 129 125 119 112 106 99 94 88 83 76 71 68 60
88 90 89 89 91 91 91 95 94 96 96 101 105 108 112 117 121 121 117 114 113 107 110 112 114 117 121 125 128 127 123 116 110 105 99 93 87 81 75 71 66 61 56
88 92 86 89 93 92 97 97 95 100 105 109 112 114 118 124 123 118 119 115 110 111 113 116 119 122 125 127 125 120 115 110 103 97 91 85 80 75 70 66 61 56 53
92 95 95 93 96 100 97 94 100 106 111 115 118 122 122 120 120 120 114 111 111 115 117 120 122 123 124 121 117 111 106 100 95 90 85 80 75 68 64 60 57 52 49
96 96 96 97 98 100 101 105 109 113 115 120 124 121 121 122 118 112 110 111 116 119 122 121 121 121 116 114 108 103 97 93 87 82 78 74 67 63 59 56 51 48 46
95 96 101 104 107 107 110 113 116 120 125 125 123 123 119 114 111 109 112 117 120 120 118 118 117 113 110 104 98 93 88 85 81 76 71 65 61 59 54 51 47 44 42
101 105 107 108 110 113 114 118 122 124 121 122 120 115 112 111 112 115 117 116 115 116 115 112 108 105 99 95 91 86 81 77 72 68 64 60 56 54 50 46 44 41 38
105 109 110 111 115 118 121 119 119 119 118 115 112 112 112 113 115 113 112 113 112 112 108 103 98 94 92 88 83 77 73 70 65 62 59 55 52 50 46 42 40 39 36
109 112 116 119 121 120 119 118 114 111 111 111 112 113 113 110 109 109 110 109 106 101 97 94 90 87 84 79 74 70 66 62 59 56 54 51 48 46 43 39 38 36 33
Wind_Direction
264 267 268 270 278 290 294 294 283 280 279 271 278 279 280 282 285 287 285 285 286 285 283 285 288 289 290 290 292 294 296 300 303 303 305 305 307 306 306 308 309 308 309
258 256 260 261 277 278 304 276 266 267 266 267 281 283 285 287 290 290 288 288 288 288 289 290 290 291 292 293 295 299 302 302 302 301 304 307 309 309 308 307 308 307 308
239 240 255 248 264 261 264 254 255 262 267 272 275 279 283 287 288 287 286 287 287 289 289 288 289 292 294 296 299 301 300 302 301 306 312 311 309 309 309 307 309 311 314
252 253 260 255 261 258 255 254 263 269 271 274 277 282 283 284 285 286 287 287 288 289 290 290 292 295 298 299 298 299 301 298 298 301 308 313 311 310 310 310 312 314 315
259 259 261 264 264 265 263 261 265 271 274 274 279 282 284 286 288 288 289 290 291 292 292 295 297 296 295 296 298 299 298 299 301 309 316 318 316 315 315 315 316 316 316
262 261 261 266 265 264 262 258 265 269 271 277 282 285 287 290 291 292 292 293 293 295 295 294 294 296 298 299 294 292 299 306 312 314 316 315 315 316 316 318 318 316 314
272 274 278 270 266 266 266 275 280 281 282 287 291 295 304 305 305 304 301 299 298 295 293 294 295 298 301 303 299 296 302 311 313 318 318 317 316 317 319 320 319 316 313
279 270 270 272 274 276 281 282 288 287 288 293 298 301 309 314 315 313 314 308 304 297 295 293 296 296 296 304 302 309 312 317 320 320 320 319 322 323 321 321 319 314 312
307 303 299 293 293 291 294 296 295 296 302 308 311 313 313 307 317 320 317 320 319 313 303 298 298 296 300 303 310 312 319 321 322 321 319 321 321 321 321 319 317 315 313
303 303 305 302 303 298 292 296 298 301 304 308 310 312 311 309 311 317 317 316 319 319 316 312 309 302 299 307 315 318 320 321 320 320 320 320 321 323 322 318 317 314 312
299 303 300 301 300 298 299 300 302 302 304 307 309 312 313 312 313 312 315 313 317 319 316 313 311 308 309 313 317 318 320 322 321 320 320 321 322 321 318 317 315 313 312
298 299 298 300 299 297 298 299 300 302 303 305 307 310 311 311 313 314 315 316 317 317 314 313 311 311 315 316 319 320 322 322 320 319 320 321 320 318 317 315 314 312 312
296 296 298 300 301 296 296 297 300 303 304 307 307 309 310 311 314 316 317 317 317 316 314 313 311 313 317 319 319 320 321 319 319 320 320 320 319 317 315 314 312 312 311
294 296 297 298 300 299 298 298 300 304 305 307 309 310 311 313 315 317 317 316 315 314 313 312 312 314 318 318 319 319 318 319 319 318 319 319 317 316 314 313 313 311 310
292 294 296 298 300 301 302 299 300 302 303 306 308 309 310 313 316 316 316 315 316 314 313 312 313 316 318 320 319 318 318 318 318 318 318 317 316 315 313 312 313 310 310
290 291 293 295 297 299 301 301 301 300 302 304 306 307 310 314 316 317 317 316 314 311 310 312 315 317 319 318 317 318 317 317 317 317 316 315 314 313 311 312 312 309 309
288 290 291 295 296 298 300 301 300 300 302 304 306 307 311 313 315 315 313 311 311 310 310 314 316 317 317 315 317 316 316 315 315 314 314 313 312 312 312 312 310 307 308
288 289 291 294 294 296 298 299 299 300 303 305 306 308 311 312 313 312 311 310 309 310 313 314 315 315 314 315 315 314 314 313 313 313 312 311 311 311 310 310 307 306 306
286 289 292 292 292 294 296 300 300 302 304 305 307 310 311 311 310 309 308 307 309 311 313 313 313 313 314 314 313 313 313 312 312 312 310 309 310 310 309 307 305 306 305
285 286 287 288 293 294 298 300 303 304 306 307 308 308 306 305 306 306 307 307 309 311 311 312 312 312 313 312 312 312 311 311 310 309 309 309 308 308 307 305 304 305 302
286 289 291 293 294 297 300 299 300 301 302 302 302 302 302 304 304 304 305 307 310 310 310 310 310 311 310 310 310 310 310 309 309 309 309 308 307 306 305 303 303 302 299
288 290 292 294 295 295 294 295 297 298 299 301 301 302 302 302 302 303 306 308 309 309 309 309 310 309 309 309 310 309 309 309 308 308 308 307 306 305 303 301 301 298 297
288 289 290 290 292 293 295 296 296 297 298 300 300 300 301 300 302 305 307 308 307 307 308 308 308 308 308 308 307 307 308 308 308 307 306 305 305 303 302 300 299 295 295
285 286 288 290 291 293 294 294 295 296 297 298 300 299 300 303 306 306 305 305 306 306 307 307 307 307 307 307 308 308 308 306 306 304 303 304 304 302 300 299 296 294 293
284 286 289 290 292 293 294 295 296 297 297 297 298 302 303 302 302 303 304 305 305 305 305 305 306 306 305 306 306 307 306 305 304 303 303 304 303 300 298 297 294 292 291
288 289 290 290 292 294 294 296 296 296 298 300 300 300 300 302 303 303 304 304 304 304 304 304 305 305 306 306 305 305 304 303 303 302 303 303 301 297 296 295 292 290 288
Height
10576 10580 10578 10581 10581 10579 10577 10574 10571 10570 10568 10555 10554 10552 10550 10547 10544 10539 10533 10526 10520 10512 10505 10499 10492 10485 10477 10469 10462 10453 10446 10437 10431 10418 10402 10384 10372 10356 10342 10326 10309 10292 10279
10571 10574 10571 10571 10571 10573 10569 10565 10562 10558 10556 10551 10543 10540 10536 10531 10527 10520 10514 10509 10502 10496 10490 10484 10476 10468 10457 10451 10444 10435 10425 10414 10408 10401 10386 10368 10349 10331 10319 10305 10288 10273 10257
10564 10563 10561 10561 10566 10566 10564 10558 10551 10549 10546 10539 10533 10526 10521 10517 10510 10504 10499 10493 10487 10481 10474 10467 10460 10451 10441 10435 10428 10417 10407 10397 10385 10377 10366 10349 10334 10310 10295 10277 10263 10245 10227
10553 10553 10554 10554 10557 10557 10553 10548 10543 10539 10534 10527 10522 10516 10508 10502 10496 10490 10484 10477 10471 10466 10458 10450 10443 10436 10428 10419 10410 10398 10388 10377 10364 10354 10344 10329 10311 10291 10270 10252 10240 10221 10207
10543 10544 10545 10546 10545 10544 10539 10535 10532 10526 10522 10516 10510 10502 10495 10488 10482 10475 10468 10461 10456 10449 10442 10434 10426 10418 10409 10400 10392 10378 10367 10356 10344 10330 10317 10303 10285 10268 10247 10231 10209 10189 10177
10537 10535 10534 10531 10531 10528 10523 10518 10516 10513 10505 10498 10492 10487 10481 10474 10467 10460 10453 10446 10439 10431 10424 10416 10406 10399 10391 10381 10370 10360 10348 10334 10321 10309 10294 10278 10261 10240 10225 10205 10185 10166 10152
10529 10526 10523 10521 10519 10517 10513 10509 10501 10495 10489 10485 10481 10474 10468 10461 10453 10445 10437 10429 10422 10415 10406 10398 10389 10382 10374 10365 10351 10338 10323 10307 10296 10283 10269 10248 10236 10211 10196 10182 10161 10139 10120
10522 10520 10516 10513 10510 10505 10501 10496 10491 10485 10481 10476 10471 10463 10455 10446 10439 10430 10422 10414 10406 10397 10389 10381 10372 10364 10356 10346 10334 10319 10302 10284 10270 10252 10235 10221 10197 10180 10162 10148 10131 10111 10093
10512 10509 10505 10501 10497 10493 10488 10483 10479 10474 10469 10463 10455 10447 10439 10431 10424 10416 10408 10398 10388 10378 10369 10362 10354 10344 10335 10326 10315 10300 10283 10267 10251 10234 10215 10193 10175 10155 10129 10117 10100 10082 10067
10498 10496 10493 10489 10486 10482 10477 10472 10465 10458 10453 10448 10440 10433 10424 10415 10406 10397 10390 10381 10371 10360 10350 10341 10333 10323 10311 10300 10287 10277 10263 10247 10234 10216 10195 10173 10150 10130 10110 10089 10072 10058 10041
10486 10483 10479 10476 10473 10468 10462 10455 10448 10442 10438 10431 10423 10416 10407 10398 10390 10381 10372 10361 10350 10339 10329 10319 10309 10298 10286 10272 10259 10248 10235 10222 10209 10193 10176 10156 10133 10111 10092 10071 10053 10032 10018
10471 10467 10463 10459 10455 10449 10444 10438 10432 10427 10422 10415 10407 10398 10389 10379 10371 10361 10351 10340 10329 10318 10305 10293 10283 10272 10256 10243 10230 10216 10202 10190 10179 10165 10148 10128 10109 10087 10067 10048 10030 10012 9997
10455 10451 10447 10443 10438 10431 10425 10421 10414 10408 10402 10394 10387 10379 10369 10359 10348 10338 10327 10317 10306 10295 10283 10272 10261 10246 10229 10215 10202 10187 10174 10164 10150 10134 10119 10100 10079 10059 10042 10026 10008 9992 9978
10435 10432 10428 10422 10416 10411 10405 10399 10392 10386 10380 10372 10365 10356 10346 10335 10324 10313 10305 10294 10283 10273 10262 10250 10237 10221 10204 10191 10176 10161 10149 10134 10120 10104 10088 10071 10051 10033 10014 10001 9988 9971 9959
10417 10415 10410 10403 10397 10391 10385 10378 10371 10364 10357 10350 10342 10333 10323 10312 10301 10290 10279 10268 10257 10245 10234 10224 10211 10195 10178 10162 10153 10138 10122 10106 10090 10071 10056 10041 10023 10007 9990 9977 9967 9951 9941
10400 10396 10390 10385 10379 10373 10366 10358 10351 10343 10334 10328 10321 10311 10299 10289 10278 10267 10256 10245 10235 10224 10212 10198 10182 10166 10151 10140 10128 10112 10096 10079 10062 10045 10029 10013 10000 9983 9969 9954 9943 9931 9924
10380 10375 10369 10365 10359 10352 10344 10337 10329 10322 10313 10304 10295 10285 10274 10265 10254 10245 10236 10225 10213 10200 10185 10168 10153 10139 10128 10117 10102 10087 10072 10055 10039 10021 10005 9988 9974 9960 9948 9935 9925 9912 9906
10359 10352 10348 10342 10336 10330 10323 10316 10308 10299 10289 10279 10270 10259 10248 10238 10227 10219 10211 10198 10184 10170 10154 10139 10126 10115 10102 10088 10076 10060 10044 10028 10011 9994 9979 9963 9951 9939 9926 9915 9907 9897 9891
10337 10331 10327 10319 10312 10305 10298 10291 10282 10273 10263 10253 10243 10232 10220 10209 10199 10191 10181 10168 10155 10138 10123 10110 10098 10085 10072 10059 10045 10030 10015 9999 9983 9968 9954 9940 9927 9918 9907 9896 9888 9881 9874
10316 10309 10306 10297 10290 10281 10274 10264 10252 10243 10233 10226 10216 10208 10200 10190 10176 10163 10151 10138 10123 10109 10097 10084 10071 10058 10045 10031 10016 10001 9986 9970 9956 9943 9931 9919 9907 9899 9888 9878 9871 9865 9858
10291 10285 10277 10271 10264 10256 10247 10239 10231 10224 10215 10207 10198 10188 10175 10163 10150 10136 10122 10107 10093 10082 10070 10056 10043 10031 10016 10002 9988 9973 9959 9946 9933 9920 9908 9897 9887 9879 9871 9862 9855 9850 9844
10267 10260 10254 10247 10240 10234 10227 10219 10210 10200 10190 10180 10169 10156 10144 10132 10119 10105 10091 10078 10066 10053 10040 10027 10015 10000 9987 9973 9960 9947 9932 9920 9908 9897 9886 9878 9869 9861 9853 9846 9841 9836 9831
10244 10237 10231 10224 10217 10209 10200 10191 10182 10172 10161 10149 10136 10124 10112 10100 10087 10074 10061 10050 10037 10024 10010 9997 9985 9971 9957 9944 9932 9922 9909 9897 9885 9875 9865 9859 9852 9843 9837 9832 9827 9823 9818
10220 10214 10206 10198 10190 10182 10173 10163 10152 10142 10130 10118 10104 10091 10078 10065 10052 10042 10034 10021 10006 9993 9980 9967 9955 9943 9930 9917 9907 9897 9887 9877 9866 9856 9848 9842 9835 9826 9822 9818 9813 9809 9806
10193 10186 10179 10171 10163 10153 10142 10131 10120 10109 10097 10085 10071 10058 10047 10037 10027 10014 10001 9988 9975 9963 9951 9939 9929 9917 9905 9893 9883 9873 9864 9856 9847 9838 9830 9825 9818 9811 9807 9805 9800 9797 9795
10165 10157 10149 10139 10130 10120 10109 10098 10087 10076 10063 10051 10041 10031 10020 10007 9995 9982 9969 9958 9946 9935 9923 9913 9902 9891 9880 9871 9862 9853 9845 9837 9828 9821 9814 9809 9803 9797 9794 9791 9788 9785 9784